Other Public Products
Issued by NWS Charleston, SC

Current Version | Previous Version | Text Only | Print | Product List | Glossary Off
Versions: 1 2 3 4 5 6 7 8 9 10 11 12 13 14 15 16 17 18 19 20 21 22 23 24 25 26 27 28 29 30 31 32 33 34 35 36 37 38 39 40 41 42 43 44 45 46 47 48 49 50
452 FPUS82 KCHS 230511 OPUCHS TEST...KCHS/KSAV Gateway Observations...TEST National Weather Service Charleston SC 1200 AM EST THU FEB 23 2017 NOTE: "fair" indicates few or no clouds below 12,000 feet with no significant weather and/or obstructions to visibility. SCZ050-WAZ558-NCZ071-TXZ119-213-PAZ071-DCZ001-FLZ074-172-MI076- NYZ176-178-MAZ016-IL014-TNZ027-NJZ106-GAZ044-MD014-230600- ...Gateway Observations for Charleston International... CITY SKY/WX TMP DP RH WIND PRES REMARKS Chas Airport PTCLDY 61 57 87 NE6 29.86F Seattle PTCLDY 36 33 89 N6 30.19S WCI 31 Charlotte CLOUDY 58 53 84 N5 29.93F Dallas DFW PTCLDY 65 49 56 SE5 29.70F Dallas Love CLEAR 70 47 43 S12 29.71F Philladelphia CLOUDY 43 40 89 SW5 29.91F Wash National CLOUDY 54 52 93 S8 29.91S Baltimore CLOUDY 45 44 97 CALM 29.90F Miami MOCLDY 66 62 87 SW5 29.66F Detroit CLOUDY 57 54 89 S8 29.70S FOG Newark MOCLDY 49 42 77 CALM 29.88F Laguardia PTCLDY 49 43 80 CALM 29.88S J F K MOCLDY 42 42 100 CALM 29.90F Boston Logan PTCLDY 41 37 86 S7 29.88S Ft. Lauderdale LGT RAIN 66 63 90 W7 29.64F Chicago O`Hare CLEAR 59 52 77 SW10G21 29.61S Chicago Midway CLEAR 60 53 77 SW16G24 29.62S Houston Bush CLEAR 64 49 57 S6 29.80S Houston Hobby CLEAR 61 52 72 S5 29.80F Nashville CLEAR 56 54 93 S5 29.85S Atlanta PTCLDY 58 57 97 E10 29.88F $$ GAZ044-118-TXZ119-213-NCZ071-DCZ001-MDZ014-506-PAZ021-071-NJZ106- NYZ176-178-MAZ106-OHZ011-021-055-MIZ076-KYZ091-ILZ014-INZ047- MNZ060-ONZ431-230600- ...Gateway Observations for Savannah International... CITY SKY/WX TMP DP RH WIND PRES REMARKS Savannah Arpt CLOUDY 62 59 90 NE7 29.83F Atlanta PTCLDY 58 57 97 E10 29.88F Charlotte CLOUDY 58 53 84 N5 29.93F Dallas DFW PTCLDY 65 49 56 SE5 29.70F Houston Bush CLEAR 64 49 57 S6 29.80S Wash National CLOUDY 54 52 93 S8 29.91S Wash Dulles CLOUDY 55 51 86 S6 29.89S Baltimore CLOUDY 45 44 97 CALM 29.90F Philadelphia CLOUDY 43 40 89 SW5 29.91F Newark MOCLDY 49 42 77 CALM 29.88F Laguardia PTCLDY 49 43 80 CALM 29.88S J F K MOCLDY 42 42 100 CALM 29.90F Boston PTCLDY 41 37 86 S7 29.88S Pittsburg CLOUDY 57 52 83 SW9 29.84F Akron CLOUDY 56 51 84 S13 29.80F Cleveland PTCLDY 58 51 78 S13 29.78F Cincinnati PTCLDY 59 55 87 S7 29.79F Columbus MOCLDY 55 54 98 S7 29.80F Detroit CLOUDY 57 54 89 S8 29.70S FOG Chicago O`Hare CLEAR 59 52 77 SW10G21 29.61S Minneapolis CLOUDY 39 32 76 NW18 29.75R WCI 30 Indianapolis PTCLDY 58 53 84 S9 29.74R Toronto Canada MOCLDY 43 41 93 SE5 29.70F FOG $$

USA.gov is the U.S. government's official web portal to all federal, state and local government web resources and services.